CZ-6A DEB

Satellite information

Favourite Embed

Satellite Type and Status

DEBRISIN ORBIT

Key statistics

Satellite CZ-6A DEB at a glance.

Uptime

969

Days in orbit

Revolutions

≈ 13.9

Per day

Orbit

SSO

Sun Synchronous Orbit

Inclination

99.0

Latest

Satellite identification and parameters

Extended collection of information and parameters for CZ-6A DEB.

Object identification

Identified? True

Debris? True

Object name: CZ-6A DEB

International designator: 2022-151HV

Object number (NORAD): 54493

Object ID (CCSDS): 54493

Country: PEOPLES REPUBLIC OF CHINA (PRC)

Current information (Y/N): Y

RCS size: SMALL

Orbital parameters

Period: 103.794 minutes

Inclination: 98.9533 deg

SMA: 7316.045 km

Apoapsis: 1075.157 km

Periapsis: 800.663 km

RAAN: 160.9 deg

Eccentricy: 0.0187597

Argument of periapsis: 317.6467 deg

Mean anomaly: 41.0335 deg

Mean motion: 13.87356965 rev/day

Mean motion (dot): 0.00002515 rev/day2

B* drag term: 0.0018896 1/REarth

Two-line elements (TLE)

Creation date: July 6, 2025, 11:06 p.m.

Reference frame: TEME

Reference center: EARTH

Epoch: July 6, 2025, 9:55 p.m. UTC

TLE line 0: 0 CZ-6A DEB

TLE line 1: 1 54493U 22151HV 25187.91333636 .00002515 00000-0 18896-2 0 9990

TLE line 2: 2 54493 98.9533 160.9000 0187597 317.6467 41.0335 13.87356965133300

Live tracking on map

Real-time ground track for satellite CZ-6A DEB.

In-orbit conjunctions

A list of the most updated potential collisions computed for object CZ-6A DEB.

Target Orbit TCA Probability of collision Miss distance Type
NOAA 16 DEB SSO 2024-11-16 07:43:00 0.0002379749 779.0 (m) DEBRIS
CZ-6A DEB LEO 2024-11-01 21:13:11 0.0001511072 696.0 (m) DEBRIS

Associated space launch

Chinese satellite reported for atmospheric/ocean/environmental/spatial parameter research purposes, details TBD.

CZ-6A DEB was lifted into orbit during the mission ‘Long March 6A | Yunhai 3’, on board a Long March 6A space rocket.

The launch took place on Nov. 11, 2022, 10:52 p.m. from Launch Complex 9A.

For more information about the launch, click the button.

Launch to space Long March 6A | Yunhai 3
Long March 6A | Yunhai 3

Agency: N/A

Status: Launch Successful

Launch date: Nov. 11, 2022, 10:52 p.m. UTC

Rocket: Long March 6A

Launch pad: Launch Complex 9A

Location: Taiyuan Satellite Launch Center, People's Republic of China

...

Latest news about this satellite

There are no fresh news available about this satellite. Check back as we update our databases every day.


Newsletter sign-up

Weekly statistics, charts and insights to help you stay on top of the space industry.